Location: Burera
(21.3780°N, 81.9534°E)
Time: 00:14:45
(UTC+00:00)

ARGOS - Pass Details

Date: 13 August 2020
Orbit: 820 x 835 km, 98.5° (Epoch: 22 September)

Event Time Altitude Azimuth Distance (km) Brightness Sun altitude
Exits shadow 13:32:19 - 142° (SE) 3,084 5.6 -7.2°
Reaches altitude 10° 13:34:09 10° 134° (SE) 2,427 5.0 -7.6°
Maximum altitude 13:38:51 32° 73° (ENE) 1,397 4.0 -8.6°
Drops below altitude 10° 13:43:32 10° 12° (NNE) 2,425 5.7 -9.6°
Sets 13:46:06 0° 3° (N) 3,357 6.6 -10.2°
